This is the latest recevied weather packets stored in our database for station/object NR5ON-13. If no packets are shown the sender has not sent any weather packets the latest 1 day(s).
| Time | Temp. | Humidity | Pressure | Rain* | Wind** | Luminosity | Snow |
|---|---|---|---|---|---|---|---|
| 1777993415 | 11.67° C | 45% | 1014.3 hPa | 0 mm | 1.34 m/s, 248° | - | - |
| 1777993120 | 11.11° C | 46% | 1014.4 hPa | 0 mm | 0.89 m/s, 217° | - | - |
| 1777992808 | 11.67° C | 45% | 1014.4 hPa | 0 mm | 0.89 m/s, 254° | - | - |
| 1777992514 | 11.67° C | 46% | 1014.6 hPa | 0 mm | 0.89 m/s, 229° | - | - |
| 1777992220 | 11.67° C | 47% | 1014.4 hPa | 0 mm | 0.89 m/s, 240° | - | - |
| 1777991905 | 11.67° C | 46% | 1014.5 hPa | 0 mm | 0.89 m/s, 259° | - | - |
| 1777991613 | 11.67° C | 45% | 1014.5 hPa | 0 mm | 0.89 m/s, 248° | - | - |
| 1777991318 | 11.67° C | 45% | 1014.4 hPa | 0 mm | 1.34 m/s, 261° | - | - |
| 1777991007 | 11.67° C | 46% | 1014.5 hPa | 0 mm | 1.34 m/s, 237° | - | - |
| 1777990716 | 11.67° C | 46% | 1014.5 hPa | 0 mm | 0.89 m/s, 240° | - | - |
| 1777990421 | 12.22° C | 46% | 1014.5 hPa | 0 mm | 0.89 m/s, 250° | - | - |
| 1777990106 | 12.22° C | 44% | 1014.5 hPa | 0 mm | 0.89 m/s, 242° | - | - |
| 1777989811 | 12.22° C | 42% | 1014.5 hPa | 0 mm | 1.34 m/s, 268° | - | - |
| 1777989517 | 12.22° C | 42% | 1014.6 hPa | 0 mm | 0.89 m/s, 223° | - | - |
| 1777989204 | 12.22° C | 43% | 1014.6 hPa | 0 mm | 0.89 m/s, 216° | - | - |
| 1777988912 | 12.22° C | 43% | 1014.6 hPa | 0 mm | 1.79 m/s, 252° | - | - |
| 1777988617 | 11.67° C | 44% | 1014.6 hPa | 0 mm | 1.34 m/s, 244° | - | - |
| 1777988306 | 11.67° C | 44% | 1014.5 hPa | 0 mm | 0.89 m/s, 224° | - | - |
| 1777988012 | 11.67° C | 44% | 1014.3 hPa | 0 mm | 0.89 m/s, 250° | - | - |
| 1777987722 | 11.11° C | 45% | 1014.5 hPa | 0 mm | 0.89 m/s, 273° | - | - |
| 1777987409 | 11.11° C | 45% | 1014.5 hPa | 0 mm | 0 m/s | - | - |
| 1777987114 | 11.11° C | 44% | 1014.4 hPa | 0 mm | 0.45 m/s, 301° | - | - |
| 1777986820 | 11.11° C | 45% | 1014.5 hPa | 0 mm | 0.45 m/s, 255° | - | - |
| 1777986505 | 10.56° C | 46% | 1014.4 hPa | 0 mm | 0.45 m/s, 249° | - | - |
| 1777986210 | 10.56° C | 45% | 1014.5 hPa | 0 mm | 0.89 m/s, 231° | - | - |
* Rain latest hour (hover to see other rain measurements)
** Current wind speed in m/s (hover to see current wind gust speed)